When you browse on this site, cookies collect data to enhance your experience and personalize the content and advertising you see.
Visit our Privacy Policy to learn more. By continuing to use the site, you agree to this use of cookies and data.
  • In United Kingdom
  • List of Countries
  • For 7 days
  • Water Temperature
  • Weather Map
  • Weather Widgets
  • user-avatar
    Login

    Hourly Weather Goiania

    Today, 8 April, Wednesday

    Time Temperature Precipitation Wind Pressure Humidity
    00:00 +24°C° 0.5 mm 1 mps 699 mmHg 91%
    01:00 +23°C° 0.2 mm 1 mps 698 mmHg 92%
    02:00 +23°C° 0.2 mm 1 mps 698 mmHg 93%
    03:00 +23°C° 0.2 mm 1 mps 698 mmHg 95%
    04:00 +23°C° 0 mm 1 mps 698 mmHg 95%
    05:00 +22°C° 0 mm 1 mps 698 mmHg 96%
    06:00 +20°C° 0 mm 0 mps 698 mmHg 96%
    07:00 +23°C° 0 mm 1 mps 698 mmHg 94%
    08:00 +24°C° 0 mm 1 mps 699 mmHg 93%
    09:00 +24°C° 0 mm 2 mps 699 mmHg 92%
    10:00 +26°C° 0 mm 1 mps 699 mmHg 86%
    11:00 +27°C° 0 mm 1 mps 699 mmHg 80%
    12:00 +29°C° 0 mm 1 mps 699 mmHg 74%
    13:00 +29°C° 0 mm 2 mps 698 mmHg 73%
    14:00 +29°C° 0 mm 2 mps 698 mmHg 72%
    15:00 +30°C° 0 mm 3 mps 697 mmHg 71%
    16:00 +28°C° 0.2 mm 2 mps 697 mmHg 77%
    17:00 +27°C° 0.2 mm 2 mps 696 mmHg 83%
    18:00 +26°C° 0.2 mm 2 mps 696 mmHg 88%
    19:00 +25°C° 0 mm 2 mps 697 mmHg 90%
    20:00 +24°C° 0 mm 1 mps 697 mmHg 91%
    21:00 +23°C° 0 mm 1 mps 697 mmHg 93%
    22:00 +23°C° 0 mm 1 mps 697 mmHg 93%
    23:00 +23°C° 0 mm 1 mps 697 mmHg 94%

    Tomorrow, 9 April, Thursday

    Time Temperature Precipitation Wind Pressure Humidity
    00:00 +23°C° 0 mm 1 mps 697 mmHg 95%
    01:00 +22°C° 0 mm 1 mps 697 mmHg 95%
    02:00 +22°C° 0 mm 1 mps 697 mmHg 95%
    03:00 +22°C° 0 mm 1 mps 697 mmHg 96%
    04:00 +22°C° 0 mm 1 mps 696 mmHg 96%
    05:00 +21°C° 0 mm 1 mps 696 mmHg 96%
    06:00 +21°C° 0 mm 1 mps 696 mmHg 96%
    07:00 +22°C° 0 mm 1 mps 697 mmHg 94%
    08:00 +24°C° 0 mm 1 mps 698 mmHg 91%
    09:00 +25°C° 0 mm 1 mps 698 mmHg 88%
    10:00 +26°C° 0 mm 1 mps 698 mmHg 84%
    11:00 +27°C° 0 mm 1 mps 698 mmHg 79%
    12:00 +29°C° 0 mm 1 mps 697 mmHg 74%
    13:00 +29°C° 0.2 mm 1 mps 697 mmHg 73%
    14:00 +29°C° 0.2 mm 1 mps 696 mmHg 72%
    15:00 +29°C° 0.2 mm 1 mps 696 mmHg 71%
    16:00 +28°C° 0.3 mm 1 mps 696 mmHg 76%
    17:00 +27°C° 0.3 mm 1 mps 696 mmHg 82%
    18:00 +26°C° 0.3 mm 1 mps 696 mmHg 87%
    19:00 +25°C° 0 mm 1 mps 696 mmHg 89%
    20:00 +24°C° 0 mm 1 mps 696 mmHg 92%
    21:00 +24°C° 0 mm 1 mps 697 mmHg 94%
    22:00 +23°C° 0 mm 1 mps 697 mmHg 94%
    23:00 +23°C° 0 mm 1 mps 697 mmHg 94%

    Day after tomorrow, 10 April, Friday

    Time Temperature Precipitation Wind Pressure Humidity
    00:00 +22°C° 0 mm 1 mps 697 mmHg 94%
    01:00 +22°C° 0 mm 1 mps 697 mmHg 95%
    02:00 +22°C° 0 mm 1 mps 696 mmHg 95%
    03:00 +21°C° 0 mm 1 mps 696 mmHg 96%
    04:00 +21°C° 0 mm 1 mps 696 mmHg 96%
    05:00 +21°C° 0 mm 1 mps 696 mmHg 96%
    06:00 +19°C° 0 mm 0 mps 696 mmHg 96%
    07:00 +22°C° 0 mm 1 mps 697 mmHg 93%
    08:00 +23°C° 0 mm 1 mps 697 mmHg 91%
    09:00 +24°C° 0 mm 1 mps 698 mmHg 89%
    10:00 +26°C° 0 mm 1 mps 698 mmHg 83%
    11:00 +27°C° 0 mm 1 mps 698 mmHg 77%
    12:00 +29°C° 0 mm 1 mps 698 mmHg 71%
    13:00 +29°C° 0.3 mm 2 mps 697 mmHg 72%
    14:00 +29°C° 0.3 mm 2 mps 697 mmHg 74%
    15:00 +29°C° 0.3 mm 3 mps 696 mmHg 75%
    16:00 +27°C° 0.7 mm 2 mps 696 mmHg 80%
    17:00 +26°C° 0.7 mm 2 mps 696 mmHg 84%
    18:00 +25°C° 0.7 mm 2 mps 696 mmHg 89%
    19:00 +24°C° 0.2 mm 1 mps 696 mmHg 89%
    20:00 +24°C° 0.2 mm 1 mps 697 mmHg 90%
    21:00 +21°C° 0.2 mm 0 mps 697 mmHg 90%
    22:00 +23°C° 0 mm 1 mps 697 mmHg 92%
    23:00 +22°C° 0 mm 1 mps 697 mmHg 93%

    11 April, Saturday

    Time Temperature Precipitation Wind Pressure Humidity
    00:00 +22°C° 0 mm 1 mps 697 mmHg 94%
    01:00 +22°C° 0 mm 1 mps 697 mmHg 94%
    02:00 +21°C° 0 mm 1 mps 697 mmHg 95%
    03:00 +21°C° 0 mm 1 mps 697 mmHg 95%
    04:00 +21°C° 0 mm 1 mps 697 mmHg 95%
    05:00 +21°C° 0 mm 1 mps 697 mmHg 95%
    06:00 +21°C° 0 mm 1 mps 697 mmHg 95%
    07:00 +22°C° 0 mm 1 mps 698 mmHg 91%
    08:00 +24°C° 0 mm 1 mps 698 mmHg 88%
    09:00 +25°C° 0 mm 1 mps 699 mmHg 84%
    10:00 +26°C° 0 mm 1 mps 699 mmHg 79%
    11:00 +28°C° 0 mm 1 mps 699 mmHg 74%
    12:00 +29°C° 0 mm 1 mps 699 mmHg 69%
    13:00 +29°C° 0.2 mm 1 mps 698 mmHg 70%
    14:00 +29°C° 0.2 mm 2 mps 697 mmHg 71%
    15:00 +28°C° 0.2 mm 2 mps 697 mmHg 71%
    16:00 +27°C° 0.3 mm 2 mps 697 mmHg 77%
    17:00 +26°C° 0.3 mm 2 mps 697 mmHg 82%
    18:00 +25°C° 0.3 mm 2 mps 697 mmHg 87%
    19:00 +24°C° 0 mm 1 mps 697 mmHg 88%
    20:00 +23°C° 0 mm 1 mps 697 mmHg 89%
    21:00 +22°C° 0 mm 1 mps 698 mmHg 90%
    22:00 +22°C° 0 mm 1 mps 698 mmHg 90%
    23:00 +22°C° 0 mm 1 mps 698 mmHg 91%

    12 April, Sunday

    Time Temperature Precipitation Wind Pressure Humidity
    00:00 +21°C° 0 mm 1 mps 698 mmHg 92%
    01:00 +21°C° 0 mm 1 mps 698 mmHg 92%
    02:00 +21°C° 0 mm 1 mps 698 mmHg 92%
    03:00 +20°C° 0 mm 1 mps 697 mmHg 92%
    04:00 +20°C° 0 mm 1 mps 697 mmHg 93%
    05:00 +20°C° 0 mm 1 mps 697 mmHg 93%
    06:00 +20°C° 0 mm 1 mps 698 mmHg 93%
    07:00 +21°C° 0 mm 1 mps 698 mmHg 89%
    08:00 +23°C° 0 mm 1 mps 699 mmHg 86%
    09:00 +24°C° 0 mm 1 mps 699 mmHg 82%
    10:00 +26°C° 0 mm 1 mps 699 mmHg 76%
    11:00 +28°C° 0 mm 1 mps 699 mmHg 71%
    12:00 +28°C° 0 mm 0 mps 700 mmHg 65%
    13:00 +30°C° 0 mm 1 mps 699 mmHg 66%
    14:00 +29°C° 0 mm 1 mps 698 mmHg 67%
    15:00 +29°C° 0 mm 2 mps 697 mmHg 68%
    16:00 +28°C° 0.1 mm 2 mps 697 mmHg 73%
    17:00 +26°C° 0.1 mm 2 mps 697 mmHg 79%
    18:00 +25°C° 0.1 mm 2 mps 697 mmHg 84%
    19:00 +24°C° 0 mm 1 mps 697 mmHg 86%
    20:00 +23°C° 0 mm 1 mps 697 mmHg 88%
    21:00 +23°C° 0 mm 1 mps 698 mmHg 90%
    22:00 +22°C° 0 mm 1 mps 698 mmHg 90%
    23:00 +22°C° 0 mm 1 mps 698 mmHg 91%

    13 April, Monday

    Time Temperature Precipitation Wind Pressure Humidity
    00:00 +22°C° 0 mm 1 mps 698 mmHg 92%
    01:00 +21°C° 0 mm 1 mps 698 mmHg 92%
    02:00 +21°C° 0 mm 1 mps 698 mmHg 93%
    03:00 +21°C° 0 mm 1 mps 697 mmHg 93%
    04:00 +21°C° 0 mm 1 mps 697 mmHg 93%
    05:00 +21°C° 0 mm 1 mps 697 mmHg 94%
    06:00 +21°C° 0 mm 1 mps 697 mmHg 94%
    07:00 +22°C° 0 mm 1 mps 698 mmHg 91%
    08:00 +23°C° 0 mm 2 mps 699 mmHg 87%
    09:00 +25°C° 0 mm 2 mps 699 mmHg 84%
    10:00 +26°C° 0 mm 3 mps 699 mmHg 79%
    11:00 +27°C° 0 mm 3 mps 699 mmHg 75%
    12:00 +28°C° 0 mm 3 mps 699 mmHg 70%
    13:00 +29°C° 0 mm 3 mps 698 mmHg 69%
    14:00 +29°C° 0 mm 2 mps 698 mmHg 68%
    15:00 +29°C° 0 mm 2 mps 697 mmHg 67%
    16:00 +28°C° 0.1 mm 2 mps 697 mmHg 73%
    17:00 +27°C° 0.1 mm 2 mps 697 mmHg 78%
    18:00 +25°C° 0.1 mm 2 mps 696 mmHg 84%
    19:00 +25°C° 0.1 mm 2 mps 697 mmHg 86%
    20:00 +24°C° 0.1 mm 2 mps 697 mmHg 88%
    21:00 +23°C° 0.1 mm 1 mps 697 mmHg 90%
    22:00 +23°C° 0 mm 2 mps 698 mmHg 91%
    23:00 +21°C° 0 mm 2 mps 698 mmHg 92%
    Show more